| time (UTC) | temp F | wind direction | speed MPH | gust MPH | rain 1hr in | rain 24hr in | rain mn in | humidity % | barometer mb |
| 20260904083642 | 69 | 286 | 0.0 | 0.0 | 0.00 | 0.10 | 0.04 | 94 | 1013.9 |
| 20260904083141 | 69 | 286 | 0.0 | 0.0 | 0.00 | 0.10 | 0.04 | 94 | 1013.9 |
| 20260904082639 | 69 | 286 | 0.0 | 0.0 | 0.00 | 0.10 | 0.04 | 94 | 1013.8 |
| 20260904082140 | 69 | 286 | 0.0 | 0.0 | 0.00 | 0.10 | 0.04 | 94 | 1013.8 |
| 20260904081639 | 69 | 286 | 0.0 | 0.0 | 0.00 | 0.10 | 0.04 | 94 | 1013.8 |
| 20260904081139 | 69 | 286 | 0.0 | 0.0 | 0.00 | 0.10 | 0.04 | 94 | 1013.7 |
| 20260904080640 | 69 | 286 | 0.0 | 0.0 | 0.00 | 0.10 | 0.04 | 94 | 1013.7 |
| 20260904080139 | 69 | 286 | 0.0 | 0.0 | 0.00 | 0.10 | 0.04 | 94 | 1013.7 |
| 20260904075639 | 69 | 286 | 0.0 | 0.0 | 0.00 | 0.10 | 0.04 | 94 | 1013.8 |
| 20260904075139 | 69 | 286 | 0.0 | 0.0 | 0.00 | 0.10 | 0.04 | 94 | 1013.9 |
| 20260904074640 | 69 | 286 | 0.0 | 0.0 | 0.00 | 0.10 | 0.04 | 94 | 1013.8 |
| 20260904074139 | 69 | 286 | 0.0 | 0.0 | 0.00 | 0.10 | 0.04 | 94 | 1013.9 |
| 20260904073640 | 69 | 286 | 0.0 | 0.0 | 0.00 | 0.10 | 0.04 | 94 | 1013.8 |
| 20260904073139 | 69 | 286 | 0.0 | 0.0 | 0.00 | 0.10 | 0.04 | 94 | 1013.7 |
| 20260904072640 | 69 | 286 | 0.0 | 0.0 | 0.00 | 0.10 | 0.04 | 94 | 1013.7 |
| 20260904072143 | 69 | 286 | 0.0 | 0.0 | 0.00 | 0.10 | 0.04 | 94 | 1013.7 |
| 20260904071643 | 69 | 286 | 0.0 | 0.0 | 0.00 | 0.10 | 0.04 | 94 | 1013.6 |
| 20260904071142 | 69 | 286 | 0.0 | 0.0 | 0.00 | 0.10 | 0.04 | 94 | 1013.6 |
| 20260904070643 | 69 | 286 | 0.0 | 0.0 | 0.00 | 0.10 | 0.04 | 94 | 1013.6 |
| 20260904070142 | 69 | 286 | 0.0 | 0.0 | 0.00 | 0.10 | 0.04 | 94 | 1013.6 |
| 20260904065643 | 69 | 286 | 0.0 | 0.0 | 0.00 | 0.10 | 0.04 | 94 | 1013.5 |
| 20260904065142 | 69 | 286 | 0.0 | 0.0 | 0.00 | 0.10 | 0.04 | 94 | 1013.4 |
| 20260904064643 | 69 | 286 | 0.0 | 0.0 | 0.00 | 0.10 | 0.04 | 94 | 1013.5 |
| 20260904064144 | 69 | 286 | 0.0 | 0.0 | 0.00 | 0.10 | 0.04 | 94 | 1013.4 |
| 20260904063644 | 69 | 286 | 0.0 | 0.0 | 0.00 | 0.10 | 0.04 | 94 | 1013.3 |
| 20260904063144 | 69 | 286 | 0.0 | 0.0 | 0.00 | 0.10 | 0.04 | 94 | 1013.1 |
| 20260904062644 | 69 | 286 | 0.0 | 0.0 | 0.00 | 0.10 | 0.04 | 94 | 1013.0 |
| 20260904062143 | 69 | 286 | 0.0 | 0.0 | 0.00 | 0.10 | 0.04 | 94 | 1013.0 |
| 20260904061644 | 70 | 286 | 0.0 | 0.0 | 0.00 | 0.10 | 0.04 | 94 | 1013.2 |
| 20260904061142 | 70 | 286 | 0.0 | 0.0 | 0.00 | 0.10 | 0.04 | 94 | 1013.1 |
| 20260904060643 | 70 | 286 | 0.0 | 0.0 | 0.00 | 0.10 | 0.04 | 94 | 1013.1 |
| 20260904060143 | 70 | 286 | 0.0 | 0.0 | 0.00 | 0.10 | 0.04 | 94 | 1013.4 |
| 20260904055643 | 70 | 286 | 0.0 | 0.0 | 0.00 | 0.10 | 0.04 | 94 | 1013.4 |
| 20260904055143 | 70 | 286 | 0.0 | 0.0 | 0.00 | 0.10 | 0.04 | 94 | 1013.5 |
| 20260904054643 | 70 | 286 | 0.0 | 0.0 | 0.00 | 0.10 | 0.04 | 94 | 1013.7 |
| 20260904054143 | 70 | 286 | 0.0 | 0.0 | 0.00 | 0.10 | 0.04 | 94 | 1013.7 |
| 20260904053643 | 70 | 286 | 0.0 | 0.0 | 0.00 | 0.10 | 0.04 | 93 | 1014.3 |
| 20260904053143 | 70 | 286 | 0.0 | 1.0 | 0.00 | 0.10 | 0.04 | 93 | 1014.3 |
| 20260904052642 | 70 | 286 | 0.0 | 1.0 | 0.01 | 0.10 | 0.04 | 93 | 1014.1 |
| 20260904052143 | 70 | 286 | 0.0 | 1.0 | 0.01 | 0.10 | 0.04 | 93 | 1013.9 |
| 20260904051642 | 70 | 286 | 0.0 | 1.0 | 0.01 | 0.10 | 0.04 | 93 | 1013.7 |
| 20260904051146 | 70 | 286 | 0.0 | 0.0 | 0.02 | 0.10 | 0.04 | 93 | 1013.6 |
| 20260904050642 | 70 | 286 | 0.0 | 0.0 | 0.03 | 0.10 | 0.04 | 93 | 1014.0 |
| 20260904050143 | 70 | 286 | 0.0 | 0.0 | 0.04 | 0.10 | 0.04 | 93 | 1014.2 |
| 20260904045642 | 70 | 286 | 0.0 | 0.0 | 0.04 | 0.10 | 0.04 | 93 | 1014.4 |
| 20260904045142 | 71 | 286 | 0.0 | 1.0 | 0.04 | 0.10 | 0.04 | 93 | 1014.4 |
| 20260904044643 | 71 | 302 | 0.0 | 1.0 | 0.04 | 0.10 | 0.04 | 93 | 1014.0 |
| 20260904044143 | 71 | 302 | 0.0 | 0.0 | 0.04 | 0.10 | 0.04 | 92 | 1014.0 |
| 20260904043643 | 71 | 302 | 0.0 | 0.0 | 0.04 | 0.10 | 0.04 | 92 | 1013.9 |
| 20260904043143 | 71 | 302 | 0.0 | 0.0 | 0.04 | 0.10 | 0.04 | 92 | 1014.0 |
| 20260904042643 | 71 | 302 | 0.0 | 0.0 | 0.03 | 0.09 | 0.03 | 91 | 1014.6 |
| 20260904042144 | 71 | 302 | 0.0 | 0.0 | 0.03 | 0.09 | 0.03 | 91 | 1015.2 |
| 20260904041643 | 72 | 302 | 0.0 | 0.0 | 0.03 | 0.09 | 0.03 | 91 | 1015.8 |
| 20260904041143 | 72 | 302 | 0.0 | 0.0 | 0.02 | 0.08 | 0.02 | 90 | 1015.6 |
| 20260904040644 | 73 | 302 | 0.0 | 5.0 | 0.02 | 0.07 | 0.01 | 90 | 1015.9 |
| 20260904040143 | 73 | 302 | 0.0 | 8.0 | 0.02 | 0.06 | 0.00 | 90 | 1015.9 |
| 20260904035644 | 73 | 313 | 2.0 | 8.0 | 0.02 | 0.06 | 0.00 | 90 | 1015.8 |
| 20260904035142 | 73 | 317 | 2.0 | 8.0 | 0.02 | 0.06 | 0.06 | 92 | 1015.5 |
| 20260904034643 | 73 | 312 | 1.0 | 8.0 | 0.02 | 0.06 | 0.06 | 92 | 1015.1 |
| 20260904034143 | 74 | 322 | 1.0 | 3.0 | 0.02 | 0.06 | 0.06 | 92 | 1014.6 |
| 20260904033642 | 74 | 350 | 0.0 | 0.0 | 0.02 | 0.06 | 0.06 | 91 | 1014.4 |
| 20260904033142 | 74 | 350 | 0.0 | 0.0 | 0.02 | 0.06 | 0.06 | 90 | 1014.3 |
| 20260904032643 | 75 | 351 | 0.0 | 0.0 | 0.02 | 0.06 | 0.06 | 90 | 1014.6 |
| 20260904032144 | 75 | 351 | 0.0 | 0.0 | 0.02 | 0.06 | 0.06 | 90 | 1014.7 |
| 20260904031644 | 76 | 351 | 0.0 | 0.0 | 0.02 | 0.06 | 0.06 | 88 | 1014.7 |
| 20260904031142 | 76 | 351 | 0.0 | 0.0 | 0.02 | 0.06 | 0.06 | 88 | 1015.1 |
| 20260904030643 | 77 | 351 | 0.0 | 3.0 | 0.02 | 0.06 | 0.06 | 87 | 1015.1 |
| 20260904030142 | 78 | 351 | 0.0 | 6.0 | 0.01 | 0.05 | 0.05 | 86 | 1015.3 |
| 20260904025643 | 78 | 4 | 1.0 | 12.0 | 0.00 | 0.04 | 0.04 | 88 | 1015.3 |
| 20260904025143 | 78 | 324 | 3.0 | 12.0 | 0.00 | 0.04 | 0.04 | 91 | 1015.3 |
| 20260904024643 | 78 | 323 | 0.0 | 5.0 | 0.00 | 0.04 | 0.04 | 91 | 1014.6 |
| 20260904024142 | 78 | 323 | 0.0 | 0.0 | 0.00 | 0.04 | 0.04 | 91 | 1014.7 |
| 20260904023642 | 78 | 323 | 0.0 | 0.0 | 0.00 | 0.04 | 0.04 | 91 | 1014.6 |
| 20260904023142 | 78 | 323 | 0.0 | 0.0 | 0.00 | 0.04 | 0.04 | 91 | 1014.6 |
| 20260904022643 | 78 | 323 | 0.0 | 0.0 | 0.00 | 0.04 | 0.04 | 91 | 1014.7 |
| 20260904022147 | 78 | 323 | 0.0 | 0.0 | 0.00 | 0.04 | 0.04 | 91 | 1014.5 |
| 20260904021646 | 78 | 323 | 0.0 | 0.0 | 0.00 | 0.04 | 0.04 | 91 | 1014.4 |
| 20260904021146 | 78 | 323 | 0.0 | 0.0 | 0.00 | 0.04 | 0.04 | 91 | 1014.4 |
| 20260904020646 | 78 | 323 | 0.0 | 0.0 | 0.00 | 0.04 | 0.04 | 92 | 1014.4 |
| 20260904020146 | 78 | 323 | 0.0 | 0.0 | 0.00 | 0.04 | 0.04 | 92 | 1014.4 |
| 20260904015645 | 78 | 323 | 0.0 | 0.0 | 0.00 | 0.04 | 0.04 | 92 | 1014.4 |
| 20260904015146 | 78 | 323 | 0.0 | 0.0 | 0.00 | 0.04 | 0.04 | 92 | 1014.5 |
| 20260904014647 | 78 | 323 | 0.0 | 0.0 | 0.00 | 0.04 | 0.04 | 92 | 1014.4 |
| 20260904014145 | 78 | 323 | 0.0 | 0.0 | 0.00 | 0.04 | 0.04 | 92 | 1014.3 |
| 20260904013646 | 78 | 323 | 0.0 | 0.0 | 0.00 | 0.04 | 0.04 | 92 | 1014.2 |
| 20260904013146 | 78 | 323 | 0.0 | 0.0 | 0.00 | 0.04 | 0.04 | 91 | 1014.3 |
| 20260904012640 | 78 | 323 | 0.0 | 0.0 | 0.00 | 0.04 | 0.04 | 91 | 1014.3 |
| 20260904012139 | 78 | 323 | 0.0 | 0.0 | 0.00 | 0.04 | 0.04 | 91 | 1014.2 |
| 20260904011640 | 78 | 323 | 0.0 | 0.0 | 0.00 | 0.04 | 0.04 | 91 | 1014.1 |
| 20260904011140 | 78 | 323 | 0.0 | 0.0 | 0.00 | 0.04 | 0.04 | 91 | 1014.1 |
| 20260904010640 | 78 | 323 | 0.0 | 0.0 | 0.00 | 0.04 | 0.04 | 91 | 1014.1 |
| 20260904010140 | 78 | 323 | 0.0 | 0.0 | 0.00 | 0.04 | 0.04 | 90 | 1014.1 |
| 20260904005640 | 78 | 323 | 0.0 | 0.0 | 0.00 | 0.04 | 0.04 | 91 | 1014.2 |
| 20260904005139 | 78 | 323 | 0.0 | 0.0 | 0.00 | 0.04 | 0.04 | 91 | 1014.3 |
| 20260904004641 | 78 | 323 | 0.0 | 0.0 | 0.00 | 0.04 | 0.04 | 91 | 1014.4 |
| 20260904004141 | 78 | 323 | 0.0 | 0.0 | 0.00 | 0.04 | 0.04 | 91 | 1014.5 |
| 20260904003640 | 78 | 323 | 0.0 | 0.0 | 0.00 | 0.04 | 0.04 | 91 | 1014.7 |
| 20260904003141 | 78 | 323 | 0.0 | 0.0 | 0.00 | 0.04 | 0.04 | 91 | 1014.7 |
| 20260904002641 | 78 | 323 | 0.0 | 0.0 | 0.00 | 0.04 | 0.04 | 91 | 1014.7 |
| 20260904002143 | 78 | 323 | 0.0 | 0.0 | 0.00 | 0.04 | 0.04 | 91 | 1014.7 |
| 20260904001645 | 78 | 323 | 0.0 | 0.0 | 0.00 | 0.04 | 0.04 | 90 | 1014.7 |
| 20260904001145 | 78 | 323 | 0.0 | 0.0 | 0.00 | 0.04 | 0.04 | 90 | 1014.8 |
| 20260904000643 | 79 | 323 | 0.0 | 0.0 | 0.00 | 0.04 | 0.04 | 89 | 1014.9 |
| 20260904000145 | 79 | 323 | 0.0 | 0.0 | 0.00 | 0.04 | 0.04 | 89 | 1014.9 |
| 20260903235643 | 79 | 323 | 0.0 | 0.0 | 0.00 | 0.04 | 0.04 | 89 | 1014.8 |
| 20260903235142 | 79 | 323 | 0.0 | 0.0 | 0.00 | 0.04 | 0.04 | 89 | 1014.6 |
| 20260903234642 | 80 | 323 | 0.0 | 0.0 | 0.00 | 0.04 | 0.04 | 89 | 1014.3 |
| 20260903234143 | 80 | 323 | 0.0 | 0.0 | 0.00 | 0.04 | 0.04 | 88 | 1014.2 |
| 20260903233644 | 80 | 323 | 0.0 | 0.0 | 0.00 | 0.04 | 0.04 | 88 | 1014.2 |
| 20260903233143 | 80 | 323 | 0.0 | 0.0 | 0.00 | 0.04 | 0.04 | 88 | 1014.2 |
| 20260903232640 | 81 | 323 | 0.0 | 0.0 | 0.00 | 0.04 | 0.04 | 87 | 1014.2 |
| 20260903232140 | 81 | 323 | 0.0 | 0.0 | 0.00 | 0.04 | 0.04 | 87 | 1014.1 |
| 20260903231641 | 81 | 323 | 0.0 | 0.0 | 0.00 | 0.04 | 0.04 | 87 | 1013.9 |
| 20260903231141 | 82 | 323 | 0.0 | 0.0 | 0.00 | 0.04 | 0.04 | 87 | 1014.0 |
| 20260903230640 | 82 | 323 | 0.0 | 0.0 | 0.00 | 0.04 | 0.04 | 84 | 1014.1 |
| 20260903230141 | 82 | 323 | 0.0 | 0.0 | 0.00 | 0.04 | 0.04 | 85 | 1014.0 |
| 20260903225639 | 82 | 323 | 0.0 | 0.0 | 0.00 | 0.04 | 0.04 | 83 | 1014.0 |
| 20260903225141 | 83 | 323 | 0.0 | 0.0 | 0.00 | 0.04 | 0.04 | 83 | 1013.9 |
| 20260903224640 | 83 | 323 | 0.0 | 0.0 | 0.00 | 0.04 | 0.04 | 84 | 1013.9 |
| 20260903224139 | 83 | 323 | 0.0 | 0.0 | 0.00 | 0.04 | 0.04 | 85 | 1013.8 |
| 20260903223639 | 83 | 323 | 0.0 | 0.0 | 0.00 | 0.04 | 0.04 | 83 | 1013.9 |
| 20260903223140 | 83 | 323 | 0.0 | 0.0 | 0.00 | 0.04 | 0.04 | 83 | 1013.9 |
| 20260903222638 | 84 | 323 | 0.0 | 0.0 | 0.00 | 0.04 | 0.04 | 83 | 1013.9 |
| 20260903222138 | 84 | 323 | 0.0 | 0.0 | 0.00 | 0.04 | 0.04 | 84 | 1013.7 |
| 20260903221637 | 84 | 323 | 0.0 | 0.0 | 0.00 | 0.04 | 0.04 | 83 | 1013.7 |
| 20260903221136 | 84 | 323 | 0.0 | 0.0 | 0.00 | 0.04 | 0.04 | 83 | 1013.7 |
| 20260903220638 | 84 | 323 | 0.0 | 0.0 | 0.00 | 0.04 | 0.04 | 82 | 1013.8 |
| 20260903220137 | 84 | 323 | 0.0 | 0.0 | 0.00 | 0.04 | 0.04 | 82 | 1013.9 |
| 20260903215637 | 84 | 323 | 0.0 | 0.0 | 0.00 | 0.04 | 0.04 | 82 | 1013.9 |
| 20260903215137 | 84 | 323 | 0.0 | 0.0 | 0.00 | 0.04 | 0.04 | 82 | 1013.8 |
| 20260903214638 | 84 | 323 | 0.0 | 0.0 | 0.00 | 0.04 | 0.04 | 82 | 1013.7 |
| 20260903214137 | 84 | 323 | 0.0 | 0.0 | 0.00 | 0.04 | 0.04 | 82 | 1013.9 |
| 20260903213637 | 84 | 323 | 0.0 | 0.0 | 0.00 | 0.04 | 0.04 | 82 | 1013.8 |
| 20260903213137 | 84 | 323 | 0.0 | 0.0 | 0.00 | 0.04 | 0.04 | 81 | 1013.9 |
| 20260903212638 | 84 | 323 | 0.0 | 0.0 | 0.00 | 0.04 | 0.04 | 81 | 1013.9 |
| 20260903212504 | 84 | 323 | 0.0 | 0.0 | 0.00 | 0.04 | 0.04 | 81 | 1013.8 |
| 20260903212140 | 84 | 323 | 0.0 | 0.0 | 0.00 | 0.04 | 0.04 | 80 | 1014.0 |
| 20260903211639 | 84 | 323 | 0.0 | 0.0 | 0.00 | 0.04 | 0.04 | 81 | 1014.0 |
| 20260903211140 | 84 | 323 | 0.0 | 0.0 | 0.00 | 0.04 | 0.04 | 80 | 1014.0 |
| 20260903210640 | 84 | 323 | 0.0 | 0.0 | 0.00 | 0.04 | 0.04 | 80 | 1014.0 |
| 20260903210140 | 84 | 323 | 0.0 | 0.0 | 0.00 | 0.04 | 0.04 | 79 | 1013.9 |
| 20260903205640 | 83 | 323 | 0.0 | 0.0 | 0.00 | 0.04 | 0.04 | 79 | 1014.0 |
| 20260903205141 | 83 | 323 | 0.0 | 0.0 | 0.00 | 0.04 | 0.04 | 82 | 1014.1 |
| 20260903204640 | 83 | 323 | 0.0 | 0.0 | 0.00 | 0.04 | 0.04 | 82 | 1014.1 |
| 20260903204140 | 83 | 323 | 0.0 | 0.0 | 0.00 | 0.04 | 0.04 | 81 | 1014.1 |
| 20260903203640 | 83 | 323 | 0.0 | 0.0 | 0.00 | 0.04 | 0.04 | 81 | 1014.3 |
| 20260903203139 | 83 | 323 | 0.0 | 0.0 | 0.00 | 0.04 | 0.04 | 82 | 1014.4 |
| 20260903202639 | 83 | 323 | 0.0 | 0.0 | 0.00 | 0.04 | 0.04 | 82 | 1014.5 |
| 20260903202137 | 83 | 323 | 0.0 | 0.0 | 0.00 | 0.04 | 0.04 | 80 | 1014.5 |
| 20260903201637 | 83 | 323 | 0.0 | 0.0 | 0.00 | 0.04 | 0.04 | 80 | 1014.6 |
| 20260903201137 | 83 | 323 | 0.0 | 0.0 | 0.00 | 0.04 | 0.04 | 81 | 1014.6 |
| 20260903200637 | 83 | 323 | 0.0 | 0.0 | 0.00 | 0.04 | 0.04 | 81 | 1014.8 |
| 20260903200137 | 83 | 323 | 0.0 | 1.0 | 0.00 | 0.04 | 0.04 | 82 | 1014.7 |
| 20260903195637 | 83 | 323 | 0.0 | 1.0 | 0.00 | 0.04 | 0.04 | 81 | 1014.7 |
| 20260903195137 | 83 | 323 | 0.0 | 1.0 | 0.00 | 0.04 | 0.04 | 81 | 1014.8 |
| 20260903194637 | 83 | 323 | 0.0 | 1.0 | 0.00 | 0.04 | 0.04 | 81 | 1014.9 |
| 20260903194137 | 82 | 296 | 0.0 | 1.0 | 0.00 | 0.04 | 0.04 | 82 | 1015.1 |
| 20260903193637 | 82 | 296 | 0.0 | 1.0 | 0.00 | 0.04 | 0.04 | 82 | 1015.0 |
| 20260903193137 | 81 | 296 | 0.0 | 0.0 | 0.00 | 0.04 | 0.04 | 83 | 1015.2 |
| 20260903192638 | 80 | 296 | 0.0 | 0.0 | 0.00 | 0.04 | 0.04 | 85 | 1015.2 |
| 20260903192141 | 80 | 296 | 0.0 | 0.0 | 0.00 | 0.04 | 0.04 | 86 | 1015.4 |
| 20260903191640 | 79 | 296 | 0.0 | 0.0 | 0.00 | 0.04 | 0.04 | 87 | 1015.4 |
| 20260903191140 | 79 | 296 | 0.0 | 0.0 | 0.00 | 0.04 | 0.04 | 86 | 1015.6 |
| 20260903190641 | 79 | 296 | 0.0 | 0.0 | 0.00 | 0.04 | 0.04 | 86 | 1015.9 |
| 20260903190140 | 79 | 296 | 0.0 | 0.0 | 0.00 | 0.04 | 0.04 | 85 | 1015.9 |
| 20260903185641 | 79 | 296 | 0.0 | 0.0 | 0.00 | 0.04 | 0.04 | 85 | 1015.8 |
| 20260903185140 | 79 | 296 | 0.0 | 0.0 | 0.00 | 0.04 | 0.04 | 86 | 1015.8 |
| 20260903184640 | 79 | 296 | 0.0 | 0.0 | 0.00 | 0.04 | 0.04 | 85 | 1015.9 |
| 20260903184140 | 79 | 296 | 0.0 | 1.0 | 0.00 | 0.04 | 0.04 | 83 | 1015.9 |
| 20260903183640 | 79 | 296 | 0.0 | 1.0 | 0.00 | 0.04 | 0.04 | 86 | 1015.8 |
| 20260903183139 | 79 | 206 | 0.0 | 0.0 | 0.00 | 0.04 | 0.04 | 87 | 1015.7 |
| 20260903182641 | 79 | 206 | 0.0 | 0.0 | 0.00 | 0.04 | 0.04 | 87 | 1015.8 |
| 20260903182140 | 78 | 206 | 0.0 | 0.0 | 0.00 | 0.04 | 0.04 | 89 | 1015.8 |
| 20260903181640 | 78 | 205 | 0.0 | 0.0 | 0.00 | 0.04 | 0.04 | 88 | 1015.9 |
| 20260903181139 | 78 | 205 | 0.0 | 0.0 | 0.00 | 0.04 | 0.04 | 89 | 1016.1 |
| 20260903180640 | 77 | 205 | 0.0 | 0.0 | 0.00 | 0.04 | 0.04 | 89 | 1016.0 |
| 20260903180140 | 77 | 205 | 0.0 | 0.0 | 0.00 | 0.04 | 0.04 | 89 | 1016.1 |
| 20260903175640 | 77 | 205 | 0.0 | 0.0 | 0.00 | 0.04 | 0.04 | 89 | 1016.0 |
| 20260903175140 | 77 | 205 | 0.0 | 0.0 | 0.00 | 0.04 | 0.04 | 89 | 1016.1 |
| 20260903174643 | 77 | 205 | 0.0 | 0.0 | 0.00 | 0.04 | 0.04 | 91 | 1016.2 |
| 20260903174141 | 76 | 206 | 0.0 | 0.0 | 0.00 | 0.04 | 0.04 | 92 | 1016.4 |
| 20260903173644 | 76 | 206 | 0.0 | 1.0 | 0.00 | 0.04 | 0.04 | 91 | 1016.4 |
| 20260903173140 | 76 | 206 | 0.0 | 1.0 | 0.00 | 0.04 | 0.04 | 91 | 1016.4 |
| 20260903172637 | 75 | 207 | 0.0 | 1.0 | 0.00 | 0.04 | 0.04 | 93 | 1016.6 |
| 20260903172137 | 75 | 60 | 0.0 | 0.0 | 0.00 | 0.04 | 0.04 | 93 | 1016.6 |
| 20260903171638 | 75 | 60 | 0.0 | 0.0 | 0.01 | 0.04 | 0.04 | 94 | 1016.7 |
| 20260903171138 | 75 | 60 | 0.0 | 0.0 | 0.02 | 0.04 | 0.04 | 94 | 1016.9 |
| 20260903170636 | 75 | 60 | 0.0 | 0.0 | 0.02 | 0.04 | 0.04 | 94 | 1016.9 |
| 20260903170137 | 74 | 60 | 0.0 | 1.0 | 0.02 | 0.04 | 0.04 | 94 | 1017.1 |
| 20260903165636 | 74 | 60 | 0.0 | 1.0 | 0.02 | 0.04 | 0.04 | 94 | 1017.2 |
| 20260903165137 | 74 | 227 | 0.0 | 0.0 | 0.03 | 0.04 | 0.04 | 94 | 1017.1 |
| 20260903164637 | 74 | 227 | 0.0 | 0.0 | 0.03 | 0.04 | 0.04 | 94 | 1017.0 |
| 20260903164137 | 74 | 227 | 0.0 | 0.0 | 0.03 | 0.04 | 0.04 | 94 | 1017.1 |
| 20260903163637 | 74 | 227 | 0.0 | 0.0 | 0.03 | 0.04 | 0.04 | 94 | 1016.9 |
| 20260903163137 | 74 | 227 | 0.0 | 0.0 | 0.03 | 0.04 | 0.04 | 94 | 1016.9 |
| 20260903162638 | 74 | 308 | 0.0 | 0.0 | 0.04 | 0.04 | 0.04 | 94 | 1017.3 |
| 20260903162141 | 74 | 309 | 0.0 | 0.0 | 0.04 | 0.04 | 0.04 | 94 | 1017.5 |
| 20260903161640 | 74 | 309 | 0.0 | 0.0 | 0.03 | 0.03 | 0.03 | 94 | 1017.4 |
| 20260903161141 | 74 | 309 | 0.0 | 0.0 | 0.02 | 0.02 | 0.02 | 94 | 1017.3 |
| 20260903160641 | 74 | 309 | 0.0 | 0.0 | 0.02 | 0.02 | 0.02 | 93 | 1017.5 |
| 20260903160140 | 74 | 309 | 0.0 | 0.0 | 0.02 | 0.02 | 0.02 | 94 | 1018.0 |
| 20260903155640 | 74 | 309 | 0.0 | 0.0 | 0.02 | 0.02 | 0.02 | 93 | 1018.2 |
| 20260903155140 | 74 | 309 | 0.0 | 0.0 | 0.01 | 0.01 | 0.01 | 93 | 1018.2 |
| 20260903154640 | 74 | 309 | 0.0 | 0.0 | 0.01 | 0.01 | 0.01 | 93 | 1018.2 |
| 20260903154140 | 74 | 309 | 0.0 | 0.0 | 0.01 | 0.01 | 0.01 | 93 | 1018.8 |
| 20260903153640 | 74 | 309 | 0.0 | 3.0 | 0.01 | 0.01 | 0.01 | 93 | 1019.1 |
| 20260903153139 | 75 | 309 | 0.0 | 3.0 | 0.01 | 0.01 | 0.01 | 93 | 1019.3 |
| 20260903152648 | 80 | 309 | 0.0 | 1.0 | 0.00 | 0.00 | 0.00 | 62 | 1019.6 |